This demonstration page uses our WeatherBlox Daily Observations layout. Learn more.

Left ArrowRight Arrow

44.89941, -97.11507

Hourly Observations for September 30, 2022

Temp ( °F °C ) Dew Point ( °F °C ) Humidity (%) Winds ( mph kmh ) Pressure ( in mb ) Visibility ( mi km ) Precip ( " mm )
12:53 am 00:53 undefined 59 15 40 4.4 49 49 SSE 21 33 30.01 1016 10 16 0.00 0.00
1:53 am 01:53 undefined 58 14.4 40 4.4 51 51 undefined N/A 30.00 1016 10 16 0.00 0.00
2:53 am 02:53 undefined 56 13.3 40 4.4 55 55 SSE 15 24 30.02 1017 10 16 0.00 0.00
3:53 am 03:53 Clear 56 13.3 41 5 57 57 SSE 16 26 30.01 1016 10 16 0.00 0.00
4:53 am 04:53 Clear 57 13.9 41 5 55 55 S 18 30 29.99 1016 10 16 0.00 0.00
5:53 am 05:53 Mostly Clear 57 13.9 41 5 55 55 SSE 16 26 29.99 1016 10 16 0.01 0.13
6:53 am 06:53 Clear 56 13.3 41 5 57 57 S 13 20 30.00 1016 10 16 0.00 0.00
7:53 am 07:53 Sunny 56 13.3 41 5 57 57 SSE 16 26 29.99 1016 10 16 0.00 0.00
8:53 am 08:53 Sunny 56 13.3 42 5.6 60 60 SSE 18 30 30.01 1016 10 16 0.00 0.00
9:53 am 09:53 undefined N/A N/A N/A undefined N/A 30.11 1020 N/A 0.00 0.00
11:53 am 11:53 Sunny 67 19.4 44 6.7 44 44 S 17 28 30.01 1016 10 16 0.00 0.00
12:53 pm 12:53 Sunny 74 23.3 45 7.2 36 36 SSE 22 35 29.99 1016 10 16 0.00 0.00
1:53 pm 13:53 Sunny 72 22.2 45 7.2 38 38 SE 14 22 29.98 1015 10 16 0.00 0.00
2:53 pm 14:53 Mostly Sunny 74 23.3 45 7.2 36 36 SSE 16 26 29.96 1015 10 16 0.00 0.00
3:53 pm 15:53 Sunny 78 25.6 45 7.2 31 31 SE 18 30 29.94 1014 10 16 0.00 0.00
4:53 pm 16:53 Mostly Sunny 74 23.3 44 6.7 34 34 SE 15 24 29.93 1013 10 16 0.00 0.00
5:53 pm 17:53 Sunny 74 23.3 44 6.7 34 34 VRB 5 7 29.96 1014 10 16 0.00 0.00
6:53 pm 18:53 Sunny 72 22.2 45 7.2 38 38 ESE 7 11 29.97 1015 10 16 0.00 0.00
7:53 pm 19:53 Clear 70 21.1 45 7.2 41 41 SE 7 11 29.98 1015 10 16 0.00 0.00
8:53 pm 20:53 Clear 66 18.9 45 7.2 47 47 ESE 6 9 30.00 1016 10 16 0.00 0.00
9:53 pm 21:53 Clear 64 17.8 43 6.1 46 46 ESE 8 13 29.98 1015 10 16 0.00 0.00
10:53 pm 22:53 Clear 63 17.2 41 5 44 44 SE 8 13 30.02 1017 10 16 0.00 0.00
11:53 pm 23:53 Clear 64 17.8 40 4.4 41 41 SE 12 19 30.03 1017 10 16 0.00 0.00

Powered by AerisWeather